UAE17 EHAM-OMDB

Flight info

Callsign UAE17
Flight time N/A
Altitude 39000
Route ARNEM L620 HMM DCT OMELO DCT MAVOR DCT KUFIK DCT TEKVI DCT FOGRE DCT TUVNU DCT SOKRU DCT ARGES DCT ARTAT UP975 EZS UG8 OTKEP UM688 RATVO M688 SIDAD P975 SESRU M677 VUTEB
Aircraft A388/J-SADE2E3FGHIJ3J4J5M1RWXY/LB1D1

Departure

Time N/A
Airport Amsterdam Airport Schiphol (EHAM)

Arrival

Time 2026-04-20 02:14
Airport Dubai International Airport (OMDB)
Time Latitude Longitude Altitude Speed Heading
2026-04-20 01:20 28.03228 50.19312 38296 ft 480 kts 150°
2026-04-20 01:20 28.00546 50.21589 38521 ft 485 kts 151°
2026-04-20 01:20 27.97820 50.23867 38726 ft 489 kts 151°
2026-04-20 01:21 27.95062 50.26139 38921 ft 492 kts 152°
2026-04-20 01:21 27.92275 50.28403 39126 ft 496 kts 152°
2026-04-20 01:21 27.89448 50.30666 39339 ft 499 kts 152°
2026-04-20 01:21 27.86590 50.32900 39539 ft 502 kts 153°
2026-04-20 01:22 27.83681 50.35107 39716 ft 505 kts 154°
2026-04-20 01:22 27.80673 50.37341 38903 ft 528 kts 154°
2026-04-20 01:22 27.77625 50.39695 38132 ft 533 kts 149°
2026-04-20 01:22 27.74812 50.42393 37850 ft 527 kts 142°
2026-04-20 01:23 27.72353 50.45456 37810 ft 531 kts 130°
2026-04-20 01:23 27.70401 50.49031 38066 ft 540 kts 118°
2026-04-20 01:23 27.68940 50.52891 38355 ft 545 kts 116°
2026-04-20 01:23 27.67103 50.56686 38616 ft 543 kts 129°
2026-04-20 01:24 27.64786 50.59946 38799 ft 538 kts 140°
2026-04-20 01:24 27.61993 50.62719 38859 ft 534 kts 152°
2026-04-20 01:24 27.55745 50.67289 38853 ft 535 kts 158°
2026-04-20 01:25 27.52441 50.69072 38860 ft 519 kts 170°
2026-04-20 01:25 27.48961 50.70138 38862 ft 503 kts 179°
2026-04-20 01:25 27.35186 50.72935 38862 ft 505 kts 179°
2026-04-20 01:26 27.21918 50.75902 38862 ft 511 kts 179°
2026-04-20 01:26 27.15022 50.78637 38866 ft 546 kts 158°
2026-04-20 01:26 27.10538 50.82287 38858 ft 565 kts 142°
2026-04-20 01:27 27.05000 50.88607 38854 ft 569 kts 139°
2026-04-20 01:27 26.96414 51.00835 38861 ft 578 kts 124°
2026-04-20 01:28 26.88044 51.16254 38876 ft 581 kts 118°
2026-04-20 01:28 26.82539 51.33293 38852 ft 583 kts 108°
2026-04-20 01:29 26.77803 51.49040 38853 ft 584 kts 108°
2026-04-20 01:29 26.74024 51.61565 38849 ft 584 kts 108°
2026-04-20 01:30 26.68845 51.78818 38841 ft 584 kts 108°
2026-04-20 01:30 26.63596 51.96020 38835 ft 585 kts 110°
2026-04-20 01:31 26.57971 52.13086 38849 ft 585 kts 110°
2026-04-20 01:31 26.54356 52.24128 38830 ft 585 kts 109°
2026-04-20 01:32 26.51577 52.32603 38825 ft 585 kts 109°
2026-04-20 01:32 26.48774 52.41128 38832 ft 584 kts 109°
2026-04-20 01:33 26.45971 52.49632 38838 ft 584 kts 109°
2026-04-20 01:33 26.43162 52.58139 38829 ft 584 kts 109°
2026-04-20 01:34 26.40352 52.66628 38832 ft 584 kts 109°
2026-04-20 01:34 26.37532 52.75130 38838 ft 583 kts 109°
2026-04-20 01:35 26.34712 52.83613 38832 ft 583 kts 109°
2026-04-20 01:35 26.31884 52.92089 38833 ft 583 kts 109°
2026-04-20 01:36 26.29052 53.00556 38831 ft 583 kts 109°
2026-04-20 01:36 26.26232 53.08973 38832 ft 583 kts 109°
2026-04-20 01:37 26.23396 53.17414 38833 ft 574 kts 109°
2026-04-20 01:37 26.22010 53.21531 38825 ft 561 kts 109°
2026-04-20 01:37 26.20658 53.25543 38830 ft 547 kts 109°
2026-04-20 01:38 26.19335 53.29465 38830 ft 536 kts 109°
2026-04-20 01:38 26.18001 53.33349 38835 ft 539 kts 112°
2026-04-20 01:38 26.14921 53.40930 38271 ft 537 kts 113°
2026-04-20 01:39 26.13393 53.44694 38025 ft 529 kts 113°
2026-04-20 01:39 26.11885 53.48409 37672 ft 523 kts 113°
2026-04-20 01:39 26.09613 53.53999 37198 ft 512 kts 114°
2026-04-20 01:39 26.08155 53.57581 36865 ft 506 kts 114°
2026-04-20 01:40 26.05843 53.63253 36390 ft 495 kts 114°
2026-04-20 01:40 26.04182 53.67323 36021 ft 487 kts 114°
2026-04-20 01:40 26.02789 53.70732 35736 ft 481 kts 114°
2026-04-20 01:40 26.01413 53.74098 35431 ft 474 kts 114°
2026-04-20 01:41 26.00062 53.77419 35124 ft 467 kts 114°
2026-04-20 01:41 25.98818 53.80581 34546 ft 460 kts 112°
2026-04-20 01:41 25.97609 53.83824 34461 ft 448 kts 112°
2026-04-20 01:41 25.96396 53.86999 34075 ft 445 kts 114°
2026-04-20 01:42 25.95151 53.90121 33798 ft 439 kts 114°
2026-04-20 01:42 25.93918 53.93199 33421 ft 434 kts 114°
2026-04-20 01:42 25.92698 53.96260 33048 ft 430 kts 114°
2026-04-20 01:42 25.91499 53.99283 32675 ft 426 kts 114°
2026-04-20 01:43 25.90251 54.02205 32304 ft 422 kts 117°
2026-04-20 01:43 25.88926 54.05141 31965 ft 418 kts 117°
2026-04-20 01:43 25.87645 54.07963 31625 ft 413 kts 117°
2026-04-20 01:43 25.86365 54.10805 31311 ft 409 kts 117°
2026-04-20 01:44 25.85107 54.13619 30974 ft 405 kts 117°
2026-04-20 01:44 25.83868 54.16405 30623 ft 401 kts 117°
2026-04-20 01:44 25.82643 54.19164 30331 ft 396 kts 117°
2026-04-20 01:44 25.81538 54.21954 29986 ft 393 kts 109°
2026-04-20 01:45 25.80680 54.24792 29623 ft 390 kts 109°
2026-04-20 01:45 25.79805 54.27651 29247 ft 386 kts 109°
2026-04-20 01:45 25.78938 54.30450 28888 ft 382 kts 109°
2026-04-20 01:45 25.78074 54.33230 28529 ft 379 kts 109°
2026-04-20 01:46 25.76444 54.38466 27889 ft 372 kts 109°
2026-04-20 01:46 25.74909 54.43394 27280 ft 365 kts 109°
2026-04-20 01:46 25.74082 54.46047 26947 ft 362 kts 110°
2026-04-20 01:46 25.73264 54.48668 26637 ft 359 kts 110°
2026-04-20 01:47 25.72449 54.51279 26331 ft 356 kts 110°
2026-04-20 01:47 25.71641 54.53865 26029 ft 353 kts 110°
2026-04-20 01:47 25.70839 54.56430 25722 ft 350 kts 110°
2026-04-20 01:47 25.70043 54.58977 25418 ft 348 kts 110°
2026-04-20 01:48 25.69254 54.61491 25126 ft 345 kts 110°
2026-04-20 01:48 25.68456 54.63983 24850 ft 342 kts 110°
2026-04-20 01:48 25.67652 54.66477 24552 ft 340 kts 110°
2026-04-20 01:48 25.66858 54.68940 24271 ft 338 kts 110°
2026-04-20 01:49 25.66070 54.71387 23994 ft 336 kts 110°
2026-04-20 01:49 25.65290 54.73809 23725 ft 333 kts 110°
2026-04-20 01:49 25.64514 54.76222 23439 ft 331 kts 110°
2026-04-20 01:49 25.63748 54.78601 23144 ft 329 kts 110°
2026-04-20 01:50 25.62994 54.80942 22870 ft 326 kts 110°
2026-04-20 01:50 25.62219 54.83348 22558 ft 323 kts 110°
2026-04-20 01:50 25.61465 54.85685 22262 ft 321 kts 110°
2026-04-20 01:50 25.60635 54.87966 21961 ft 318 kts 114°
2026-04-20 01:51 25.59754 54.90201 21686 ft 315 kts 114°
2026-04-20 01:51 25.58886 54.92423 21404 ft 313 kts 114°
2026-04-20 01:51 25.58028 54.94625 21126 ft 310 kts 113°
2026-04-20 01:51 25.57178 54.96808 20861 ft 308 kts 113°
2026-04-20 01:52 25.56333 54.98976 20594 ft 305 kts 113°
2026-04-20 01:52 25.55495 55.01126 20308 ft 303 kts 113°
2026-04-20 01:52 25.54672 55.03224 20060 ft 300 kts 115°
2026-04-20 01:52 25.53665 55.05244 19798 ft 298 kts 120°
2026-04-20 01:53 25.52621 55.07223 19521 ft 297 kts 120°
2026-04-20 01:53 25.51597 55.09193 19260 ft 295 kts 119°
2026-04-20 01:53 25.50582 55.11153 18992 ft 293 kts 119°
2026-04-20 01:53 25.49575 55.13097 18723 ft 291 kts 119°
2026-04-20 01:54 25.48565 55.15046 18455 ft 290 kts 119°
2026-04-20 01:54 25.47564 55.16975 18205 ft 288 kts 119°
2026-04-20 01:54 25.46568 55.18892 17930 ft 286 kts 119°
2026-04-20 01:54 25.45435 55.20690 17627 ft 285 kts 131°
2026-04-20 01:55 25.44090 55.22301 17314 ft 284 kts 132°
2026-04-20 01:55 25.42761 55.23911 17050 ft 282 kts 131°
2026-04-20 01:55 25.41453 55.25516 16778 ft 280 kts 131°
2026-04-20 01:55 25.40156 55.27113 16488 ft 279 kts 131°
2026-04-20 01:56 25.38866 55.28700 16191 ft 277 kts 131°
2026-04-20 01:56 25.37573 55.30289 15920 ft 275 kts 131°
2026-04-20 01:56 25.36298 55.31855 15673 ft 273 kts 131°
2026-04-20 01:56 25.35134 55.33508 15377 ft 272 kts 119°
2026-04-20 01:57 25.34177 55.35286 15116 ft 270 kts 119°
2026-04-20 01:57 25.33202 55.37066 14849 ft 268 kts 119°
2026-04-20 01:57 25.32244 55.38793 14610 ft 266 kts 120°
2026-04-20 01:57 25.31275 55.40532 14344 ft 266 kts 120°
2026-04-20 01:58 25.30306 55.42268 14088 ft 265 kts 119°
2026-04-20 01:58 25.29343 55.43994 13820 ft 264 kts 119°
2026-04-20 01:58 25.28382 55.45717 13570 ft 262 kts 119°
2026-04-20 01:58 25.27431 55.47424 13296 ft 260 kts 119°
2026-04-20 01:59 25.26483 55.49124 13033 ft 259 kts 119°
2026-04-20 01:59 25.25540 55.50820 12751 ft 259 kts 119°
2026-04-20 01:59 25.24602 55.52508 12493 ft 257 kts 119°
2026-04-20 01:59 25.23666 55.54190 12228 ft 256 kts 119°
2026-04-20 02:00 25.22734 55.55865 11980 ft 255 kts 119°
2026-04-20 02:00 25.21807 55.57532 11717 ft 255 kts 119°
2026-04-20 02:00 25.20880 55.59197 11465 ft 254 kts 119°
2026-04-20 02:00 25.19958 55.60853 11218 ft 253 kts 119°
2026-04-20 02:01 25.19037 55.62504 10987 ft 252 kts 119°
2026-04-20 02:01 25.18121 55.64151 10744 ft 251 kts 119°
2026-04-20 02:01 25.17209 55.65790 10502 ft 251 kts 119°
2026-04-20 02:01 25.16296 55.67428 10297 ft 250 kts 119°
2026-04-20 02:02 25.15389 55.69056 10071 ft 249 kts 119°
2026-04-20 02:02 25.14788 55.70132 9908 ft 248 kts 119°
2026-04-20 02:02 25.13881 55.71758 9683 ft 248 kts 118°
2026-04-20 02:02 25.12978 55.73375 9455 ft 247 kts 118°
2026-04-20 02:03 25.12081 55.74981 9218 ft 245 kts 119°
2026-04-20 02:03 25.11188 55.76580 9016 ft 244 kts 119°
2026-04-20 02:03 25.10313 55.78145 8789 ft 242 kts 119°
2026-04-20 02:03 25.09429 55.79725 8582 ft 241 kts 119°
2026-04-20 02:04 25.08552 55.81294 8370 ft 240 kts 119°
2026-04-20 02:04 25.07679 55.82852 8152 ft 238 kts 119°
2026-04-20 02:04 25.06799 55.84400 7928 ft 238 kts 124°
2026-04-20 02:04 25.05552 55.85606 7611 ft 243 kts 151°
2026-04-20 02:05 25.03926 55.86116 7310 ft 246 kts 178°
2026-04-20 02:05 25.02268 55.85781 7089 ft 242 kts 205°
2026-04-20 02:05 25.00953 55.84678 6754 ft 241 kts 238°
2026-04-20 02:05 25.00358 55.82992 6523 ft 234 kts 266°
2026-04-20 02:06 25.00480 55.81255 6390 ft 225 kts 289°
2026-04-20 02:06 25.01158 55.79747 6231 ft 217 kts 305°
2026-04-20 02:06 25.01990 55.78350 5923 ft 222 kts 306°
2026-04-20 02:06 25.02827 55.76959 5813 ft 216 kts 306°
2026-04-20 02:07 25.03626 55.75546 5614 ft 224 kts 304°
2026-04-20 02:07 25.04496 55.73980 5617 ft 250 kts 304°
2026-04-20 02:07 25.05424 55.72305 5584 ft 259 kts 304°
2026-04-20 02:07 25.06359 55.70615 5550 ft 256 kts 303°
2026-04-20 02:08 25.07270 55.68967 5484 ft 247 kts 303°
2026-04-20 02:08 25.08137 55.67400 5416 ft 238 kts 303°
2026-04-20 02:08 25.08983 55.65871 5340 ft 229 kts 303°
2026-04-20 02:08 25.09800 55.64401 5279 ft 221 kts 303°
2026-04-20 02:09 25.10586 55.62980 5185 ft 214 kts 303°
2026-04-20 02:09 25.11345 55.61610 5123 ft 203 kts 303°
2026-04-20 02:09 25.12059 55.60318 5091 ft 193 kts 304°
2026-04-20 02:09 25.12739 55.59091 4757 ft 185 kts 304°
2026-04-20 02:10 25.13419 55.57868 4363 ft 188 kts 303°
2026-04-20 02:10 25.14102 55.56633 3962 ft 188 kts 303°
2026-04-20 02:10 25.14781 55.55405 3567 ft 187 kts 303°
2026-04-20 02:10 25.15458 55.54183 3186 ft 186 kts 303°
2026-04-20 02:11 25.16123 55.52985 2827 ft 176 kts 302°
2026-04-20 02:11 25.16746 55.51856 2584 ft 168 kts 302°
2026-04-20 02:11 25.17355 55.50756 2363 ft 169 kts 302°
2026-04-20 02:11 25.17972 55.49641 2134 ft 171 kts 302°
2026-04-20 02:12 25.18596 55.48516 1907 ft 172 kts 301°
2026-04-20 02:12 25.19217 55.47389 1688 ft 172 kts 301°
2026-04-20 02:12 25.19841 55.46265 1426 ft 171 kts 300°
2026-04-20 02:12 25.20471 55.45084 1202 ft 188 kts 299°
2026-04-20 02:13 25.21162 55.43794 995 ft 193 kts 300°
2026-04-20 02:13 25.21844 55.42590 685 ft 186 kts 301°
2026-04-20 02:13 25.22575 55.41283 403 ft 211 kts 301°
2026-04-20 02:13 25.23367 55.39880 123 ft 214 kts 301°
2026-04-20 02:14 25.24083 55.38592 27 ft 170 kts 302°
2026-04-20 02:14 25.24521 55.37813 27 ft 64 kts 301°
2026-04-20 02:14 25.24612 55.37515 27 ft 36 kts 275°
2026-04-20 02:14 25.24627 55.37259 27 ft 31 kts 290°
2026-04-20 02:15 25.24730 55.37073 27 ft 27 kts 303°
2026-04-20 02:15 25.24820 55.36909 27 ft 23 kts 296°
2026-04-20 02:15 25.24865 55.36749 27 ft 21 kts 281°
2026-04-20 02:15 25.24915 55.36617 27 ft 18 kts 302°
2026-04-20 02:16 25.24975 55.36513 27 ft 16 kts 302°
2026-04-20 02:16 25.25030 55.36414 27 ft 14 kts 301°
2026-04-20 02:16 25.25057 55.36327 27 ft 9 kts 245°
2026-04-20 02:16 25.25021 55.36291 27 ft 7 kts 211°
2026-04-20 02:17 25.24981 55.36264 27 ft 6 kts 211°
2026-04-20 02:17 25.24943 55.36239 27 ft 6 kts 212°
2026-04-20 02:17 25.24933 55.36231 27 ft 0 kts 212°
2026-04-20 02:17 25.24932 55.36231 27 ft 0 kts 212°